Weather History for KSLN - November, 2011

Change the Weather History Date:

Thursday, November 17, 2011

  Actual Average Record
Temperature  
Mean Temperature 36 °F 43 °F  
Max Temperature 51 °F 54 °F 80 °F (1999)
Min Temperature 20 °F 32 °F 3 °F (1959)
Degree Days  
Heating Degree Days 29 22  
Month to date heating degree days 330 302  
Since 1 July heating degree days 630 620  
Cooling Degree Days 0 0  
Month to date cooling degree days 0 0  
Year to date cooling degree days 2003 1646  
Moisture  
Dew Point 24 °F    
Average Humidity 60    
Maximum Humidity 88    
Minimum Humidity 32    
Precipitation  
Precipitation 0.00 in 0.04 in 0.90 in (1957)
Month to date precipitation 2.06 0.78  
Year to date precipitation 19.02 30.09  
Sea Level Pressure  
Sea Level Pressure 30.24 in    
Wind  
Wind Speed 13 mph (SSW)    
Max Wind Speed 26 mph    
Max Gust Speed 36 mph    
Visibility 10 miles    
Events      
T = Trace of Precipitation, MM = Missing Value Source: NWS Daily Summary

Daily Weather History Graph

Daily Weather History Graph

Search for Another Location

Airport or City:

Trip Planner

Search our weather history database for the weather conditions in past years. The results will help you decide how hot, cold, wet, or windy it might be!

Date:

Astronomy

Nov. 17, 2011 Rise Set
Actual Time 7:14 AM CST 5:15 PM CST
Civil Twilight 6:46 AM CST 5:44 PM CST
Nautical Twilight 6:14 AM CST 6:16 PM CST
Astronomical Twilight 5:42 AM CST 6:48 PM CST
Moon 11:36 PM CST (11/17) 12:25 PM CST (11/17)
Length of Visible Light 10h 57m
Length of Day
10h 00m
Waning Gibbous, 59% of the Moon is Illuminated
Nov 17
Waning Gibbous
Nov 18
Last Quarter
Nov 25
New
Dec 2
First Quarter
Dec 10
Full

Hourly Weather History & Observations

Time (CST) Temp. Windchill Dew Point Humidity Pressure Visibility Wind Dir Wind Speed Gust Speed Precip Events Conditions
12:53 AM 26.1 °F 17.6 °F 21.9 °F 84% 30.44 in 10.0 mi WSW 8.1 mph - N/A   Clear
1:53 AM 26.6 °F - 23.0 °F 86% 30.39 in 10.0 mi Calm Calm - N/A   Clear
2:53 AM 26.1 °F 19.4 °F 23.0 °F 88% 30.42 in 10.0 mi West 5.8 mph - N/A   Clear
3:53 AM 26.1 °F 14.5 °F 23.0 °F 88% 30.41 in 10.0 mi WSW 13.8 mph - N/A   Clear
4:53 AM 25.0 °F - 21.0 °F 85% 30.41 in 10.0 mi Calm Calm - N/A   Clear
5:53 AM 24.1 °F - 19.9 °F 84% 30.40 in 10.0 mi Calm Calm - N/A   Clear
6:53 AM 21.0 °F 16.2 °F 18.0 °F 88% 30.40 in 10.0 mi SSE 3.5 mph - N/A   Clear
7:53 AM 24.1 °F 15.2 °F 21.0 °F 88% 30.40 in 10.0 mi South 8.1 mph - N/A   Clear
8:53 AM 28.9 °F 20.4 °F 24.1 °F 82% 30.40 in 10.0 mi SSW 9.2 mph - N/A   Clear
9:53 AM 35.1 °F 27.4 °F 28.9 °F 78% 30.38 in 10.0 mi South 10.4 mph - N/A   Clear
10:53 AM 41.0 °F 33.5 °F 30.9 °F 67% 30.34 in 10.0 mi SSW 13.8 mph - N/A   Clear
11:53 AM 45.0 °F 36.6 °F 28.0 °F 52% 30.29 in 10.0 mi SSW 21.9 mph 27.6 mph N/A   Clear
12:53 PM 48.9 °F - 25.0 °F 39% 30.24 in 10.0 mi SSW 21.9 mph 27.6 mph N/A   Clear
1:53 PM 50.0 °F - 23.0 °F 35% 30.20 in 10.0 mi South 24.2 mph 31.1 mph N/A   Clear
2:53 PM 50.0 °F - 21.9 °F 33% 30.16 in 10.0 mi South 23.0 mph 28.8 mph N/A   Clear
3:53 PM 48.9 °F - 23.0 °F 36% 30.13 in 10.0 mi South 16.1 mph 24.2 mph N/A   Clear
4:53 PM 46.0 °F 40.2 °F 24.1 °F 42% 30.12 in 10.0 mi South 12.7 mph 21.9 mph N/A   Clear
5:53 PM 42.1 °F 35.2 °F 26.1 °F 53% 30.11 in 10.0 mi South 12.7 mph - N/A   Clear
6:53 PM 41.0 °F 33.1 °F 27.0 °F 57% 30.10 in 10.0 mi South 15.0 mph - N/A   Clear
7:53 PM 41.0 °F 32.8 °F 25.0 °F 53% 30.07 in 10.0 mi South 16.1 mph - N/A   Clear
8:53 PM 41.0 °F 33.9 °F 25.0 °F 53% 30.04 in 10.0 mi South 12.7 mph 21.9 mph N/A   Clear
9:53 PM 41.0 °F 32.5 °F 25.0 °F 53% 30.01 in 10.0 mi South 17.3 mph 28.8 mph N/A   Clear
10:53 PM 39.9 °F 30.8 °F 24.1 °F 53% 29.97 in 10.0 mi South 18.4 mph 27.6 mph N/A   Clear
11:53 PM 39.9 °F 29.2 °F 26.1 °F 58% 29.93 in 10.0 mi South 25.3 mph 35.7 mph N/A   Clear